Погода в Шульгине

Россия / Тамбовская область     52°12′32″N   40°50′00″E
темп.,
°C
ветер,
м/с
пор.,
м/с
влажн.,
%
обл.,
%
осадки,
мм/ч
давл.,
гПа
погр.,
м
25 июня, сб
сб2500:00+15св36885 0.0 101388
03:00+14св48935 0.0 1014145
06:00+16св48896 0.0 1014229
09:00+21св46705 0.0 1015554
12:00+24св56594 0.0 10151542
15:00+25св57539 0.0 10151959
18:00+24св47675 0.0 1015451
21:00+18св34823 0.1 101751
26 июня, вс
вс2600:00+17св33850 0.0 101843
03:00+16ссв45871 0.0 101875
06:00+18св49855 0.0 1019236
09:00+23св57680 0.0 1020559
12:00+25св59560 0.0 10201850
15:00+27всв575276 0.0 10192319
18:00+21ссв37747 0.1 1020129
21:00+19св22850 0.1 102111
27 июня, пн
пн2700:00+17в22870 0.0 102112
03:00+16вюв33920 0.0 102230
06:00+17ююв22830 0.0 102391
09:00+22ю11640 0.0 1022440
12:00+26з11550 0.0 1021920
15:00+27зсз23560 0.0 10201244
18:00+27зюз236412 0.0 1018877
21:00+22зюз228298 0.8 101919
28 июня, вт
вт2800:00+20сз22872 0.1 101722
03:00+19ссз35950 0.1 101777
06:00+20ссв410850 0.0 1017261
09:00+23ссв68720 0.0 1018665
12:00+25ссв686314 0.0 10181509
15:00+24ссв67550 0.1 10181553
18:00+20ссв69650 0.0 1019685
21:00+15ссв510680 0.0 1020220
29 июня, ср
ср2900:00+13св35820 0.0 102173
03:00+11всв37851 0.0 1022130
06:00+12св47810 0.0 1023225
09:00+17всв57570 0.0 10231006
12:00+19св45461 0.0 10231841
15:00+20ссв454642 0.0 10232145
18:00+19ссв455899 0.0 1022843
21:00+16ссв37644 0.0 1023186